Weather History for MRLB - April, 2013

Change the Weather History Date:

Tuesday, April 2, 2013

  Actual Average Record
Temperature  
Mean Temperature 86 °F -  
Max Temperature 96 °F 93 °F 102 °F (1998)
Min Temperature 76 °F 76 °F 69 °F (2015)
Cooling Degree Days 21    
Growing Degree Days 36 (Base 50)    
Moisture  
Dew Point 63 °F    
Average Humidity 42    
Maximum Humidity 65    
Minimum Humidity 20    
Precipitation  
Precipitation 0.00 in - - ()
Sea Level Pressure  
Sea Level Pressure 29.83 in    
Wind  
Wind Speed 12 mph ()    
Max Wind Speed 22 mph    
Max Gust Speed 36 mph    
Visibility 12.0 miles    
Events      
Averages and records for this station are not official NWS values.
T = Trace of Precipitation, MM = Missing Value Source: Averaged Metar Reports

Daily Weather History Graph

Daily Weather History Graph

Search for Another Location

Airport or City:

Trip Planner

Search our weather history database for the weather conditions in past years. The results will help you decide how hot, cold, wet, or windy it might be!

Date:

Astronomy

Apr. 02, 2013 Rise Set
Actual Time 5:38 AM CST 5:52 PM CST
Civil Twilight 5:17 AM CST 6:14 PM CST
Nautical Twilight 4:52 AM CST 6:38 PM CST
Astronomical Twilight 4:28 AM CST 7:03 PM CST
Moon No Moon Rise 11:10 AM CST (4/2)
Length of Visible Light 12h 56m
Length of Day
12h 14m
Waning Gibbous, 55% of the Moon is Illuminated
Apr 2
Waning Gibbous
Apr 2
Last Quarter
Apr 10
New
Apr 18
First Quarter
Apr 25
Full

Hourly Weather History & Observations

Time (CST) Temp. Heat Index Dew Point Humidity Pressure Visibility Wind Dir Wind Speed Gust Speed Precip Events Conditions
6:00 AM 80 °F - 67 °F 55% 29.83 in 12 mi East 6.9 mph - -   Clear
6:00 AM 80.6 °F 82.7 °F 66.2 °F 61% 29.82 in - East 6.9 mph - N/A   Clear
7:00 AM 80.6 °F 83.2 °F 68.0 °F 65% 29.85 in - NE 5.8 mph - N/A   Clear
8:00 AM 86.0 °F 87.3 °F 64.4 °F 48% 29.86 in - ENE 17.3 mph - N/A   Clear
9:00 AM 89 °F - 63 °F 32% 29.89 in 12 mi ENE 17.3 mph - -   Clear
9:00 AM 89.6 °F 90.1 °F 62.6 °F 40% 29.88 in - ENE 17.3 mph - N/A   Clear
10:00 AM 91.4 °F 90.7 °F 59.0 °F 34% 29.86 in - East 18.4 mph 29.9 mph N/A   Clear
11:00 AM 91.4 °F 92.1 °F 62.6 °F 38% 29.85 in - East 21.9 mph 35.7 mph N/A   Clear
12:00 PM 92 °F - 61 °F 25% 29.84 in 12 mi ENE 21.9 mph - -   Clear
12:00 PM 93.2 °F 93.3 °F 60.8 °F 34% 29.82 in - ENE 21.9 mph 33.4 mph N/A   Clear
1:00 PM 93.2 °F 92.6 °F 59.0 °F 32% 29.81 in - East 19.6 mph - N/A   Clear
2:00 PM 95.0 °F 95.2 °F 60.8 °F 32% 29.79 in - ENE 20.7 mph - N/A   Clear
3:00 PM 96 °F - 59 °F 20% 29.78 in 12 mi ENE 18.4 mph - -   Scattered Clouds
3:00 PM 96.8 °F 96.2 °F 59.0 °F 28% 29.77 in - ENE 18.4 mph - N/A   Clear
4:00 PM 95.0 °F 95.2 °F 60.8 °F 32% 29.76 in - ENE 17.3 mph - N/A   Clear
5:00 PM 91.4 °F 92.1 °F 62.6 °F 38% 29.77 in - NE 21.9 mph - N/A   Clear
6:00 PM 87.8 °F 89.4 °F 64.4 °F 46% 29.80 in - NE 16.1 mph - N/A   Clear
7:00 PM 86.0 °F 87.3 °F 64.4 °F 48% 29.83 in - ENE 15.0 mph - N/A   Clear
8:00 PM 84.2 °F 86.6 °F 66.2 °F 55% 29.86 in - East 6.9 mph - N/A   Clear
9:00 PM 82.4 °F 84.6 °F 66.2 °F 58% 29.89 in - East 5.8 mph - N/A   Clear
10:00 PM 80.6 °F 82.7 °F 66.2 °F 61% 29.90 in - ENE 6.9 mph - N/A   Clear